Location: Bagnolo San Vito
(45.0833°N, 10.8833°E)
Time: 22:31:06
(UTC+00:00)

Gbstr 26 Del rocket - Pass Details

Date: 03 March 2021
Orbit: 492 x 1264 km, 51.8° (Epoch: 17 April)

Event Time Altitude Azimuth Distance (km) Brightness Sun altitude
Rises 19:55:00 0° 294° (WNW) 2,960 7.8 -29.9°
Reaches altitude 10° 19:57:12 10° 301° (WNW) 2,148 6.7 -30.3°
Enters shadow 20:01:05 44° 344° (NNW) 1,076 4.4 -30.9°
